x

Virginia Beach 64 Nm East Of Virginia Beach, Va (44014) Wave Buoy

8:50 - Tue 21st Feb 2017 All times are EST. -5 hours from GMT.

  • Sig Wave height 3.9ft
  • Swell Direction
  • Peak Period 7s
  • Average Period 5s
  • Wind
    13mph, 16mph gusts
  • Sea Temp 53°f
  • Luft Temp 51°f
  • Sea Pressure 1026.5mb
  • Virginia Beach 64 Nm East Of Virginia Beach, Va
  • Virginia Beach 64 Nm East Of Virginia Beach, Va

More Historic Weather Station data

Upgrade to MSW Pro to gain access to the past 30 days of data for over 8000 Wavebouys and Weather Stations around the globe.

Join Pro

Comparision Forecast

View Surf forecast
   
Di 02/21 8:50 4ft 7s 5s 13 16 mph 1026.5mb 53f 51f
7:50 4ft 6s 5s 13 18 mph 1026.3mb 53f 51f
6:50 3.5ft 6s 4s 16 18 mph 1025.7mb 53f 51f
5:50 3.5ft 6s 4s 18 22 mph 1024.9mb 53f 51f
4:50 4ft 6s 4s 18 22 mph 1024.4mb 53f 52f
3:50 3.5ft 6s 4s 18 22 mph 1024.3mb 53f 52f
2:50 3.5ft 6s 4s 18 22 mph 1024.1mb 53f 52f
1:50 3.5ft 6s 4s 18 20 mph 1024.5mb 53f 52f
12:50 3.5ft 5s 4s 18 22 mph 1024.6mb 53f 53f
Mo 02/20 11:50 3.5ft 5s 4s 18 22 mph 1024.3mb 53f 53f
10:50 3ft 5s 4s 20 22 mph 1024mb 53f 53f
9:50 3ft 6s 4s 18 20 mph 1024.4mb 54f 53f
8:50 2.5ft 6s 4s 13 16 mph 1024.3mb 54f 52f
7:50 2.5ft 5s 4s 13 18 mph 1023.8mb 54f 52f
6:50 2.5ft 5s 4s 13 16 mph 1023.7mb 54f 52f
5:50 2.5ft 5s 4s 11 13 mph 1022.9mb 54f 52f
4:50 2.5ft 5s 4s 13 16 mph 1022.2mb 54f 52f
3:50 2.5ft 5s 4s 13 16 mph 1021.7mb 53f 52f
2:50 2.5ft 4s 4s 13 16 mph 1021.3mb 52f 52f
1:50 3ft 4s 4s 16 18 mph 1021.6mb 51f 51f
12:50 2.5ft 4s 4s 16 18 mph 1021.7mb 51f 51f
11:50 2.5ft 5s 4s 11 13 mph 1022.2mb 51f 51f
10:50 3ft 5s 4s 13 16 mph 1022.4mb 51f 52f
9:50 3ft 4s 4s 16 18 mph 1021.4mb 51f 52f
8:50 3ft 4s 4s 16 20 mph 1021.2mb 51f 52f
7:50 2ft 3s 3s 16 20 mph 1020.6mb 51f 53f
6:50 1.6ft 3s 3s 16 20 mph 1019.5mb 51f 52f
5:50 1.3ft 7s 4s 16 18 mph 1018.7mb 51f 51f
4:50 1.3ft 8s 5s 11
mph
1017.8mb 51f 52f
3:50 1.3ft 7s 5s 9 11 mph 1016.9mb 51f 53f
2:50 1.3ft 7s 5s 11 13 mph 1017mb 51f 53f
1:50 1.3ft 8s 5s 9 11 mph 1016.8mb 51f 52f
12:50 1.3ft 7s 5s 9 11 mph 1016.6mb 51f 52f
So 02/19 11:50 1.6ft 7s 5s 7
mph
1016.1mb 51f 52f
10:50 1.6ft 7s 5s 4
mph
1016.1mb 51f 52f
9:50 1.6ft 8s 5s 4 7 mph 1015.5mb 51f 52f
8:50 2ft 8s 5s 4
mph
1015.1mb 51f 53f
7:50 2ft 7s 6s 2
mph
1014.5mb 51f 53f
6:50 1.6ft 8s 5s 7 9 mph 1013.9mb 51f 53f
5:50 1.6ft 8s 5s 9
mph
1013.4mb 51f 53f
4:50 1.6ft 5s 4s 11
mph
1012.7mb 51f 53f
3:50 1.6ft 5s 4s 13 16 mph 1012.5mb 52f 53f
2:50 2ft 5s 4s 9
mph
1012.1mb 52f 53f
1:50 2ft 5s 4s 9 11 mph 1011.8mb 52f 53f
12:50 2.5ft 5s 4s 9 11 mph 1012.1mb 51f 52f
11:50 2.5ft 6s 4s 9 11 mph 1012.3mb 51f 52f
10:50 2.5ft 6s 4s 7
mph
1012.7mb 51f 52f
9:50 3.5ft 6s 5s 9 11 mph 1012.4mb 51f 53f
8:50 3.5ft 6s 5s 11 13 mph 1012mb 51f 53f
7:50 3.5ft 6s 5s 11 13 mph 1010.9mb 51f 53f
6:50 4ft 7s 5s 13
mph
1010.3mb 51f 53f
5:50 4.5ft 6s 5s 13
mph
1010.6mb 51f 54f
4:50 4.5ft 7s 5s 11 13 mph 1010.6mb 51f 55f
3:50 4.5ft 7s 5s 18 20 mph 1010.7mb 51f 56f
2:50 4.5ft 7s 5s 16 18 mph 1010.9mb 51f 55f
1:50 4.5ft 7s 5s 18 20 mph 1010.7mb 51f 55f
12:50 4.5ft 6s 5s 22 25 mph 1010.8mb 51f 56f
Sa 02/18 11:50 4.5ft 6s 5s 16 18 mph 1010.4mb 51f 54f
10:50 4.5ft 6s 5s 18 20 mph 1010.6mb 51f 56f
9:50 4ft 6s 4s 20 22 mph 1010.8mb 51f 54f
8:50 4.5ft 5s 4s 18 22 mph 1010.6mb 51f 54f
7:50 4.5ft 5s 4s 20 22 mph 1010.8mb 51f 55f
6:50 3.5ft 5s 4s 20 25 mph 1010.6mb 52f 55f
5:50 3.5ft 5s 4s 20 22 mph 1010.2mb 52f 55f
4:50 2.5ft 5s 4s 20 25 mph 1010mb 52f 55f
3:50 2ft 5s 4s 16 18 mph 1010.6mb 53f 54f
2:50 2ft 9s 4s 11 13 mph 1010.9mb 52f 53f
1:50 2ft 5s 4s 11 13 mph 1011.6mb 52f 52f
12:50 2ft 9s 4s 11 13 mph 1012.2mb 52f 52f
11:50 2.5ft 5s 4s 13
mph
1013.1mb 52f 52f
10:50 2.5ft 5s 4s 9
mph
1013.5mb 52f 52f
9:50 2.5ft 5s 4s 11
mph
1014mb 51f 51f
8:50 2.5ft 6s 4s 13 16 mph 1014.2mb 51f 52f
7:50 2.5ft 6s 4s 13 16 mph 1013.8mb 52f 52f
6:50 2.5ft 6s 4s 13 16 mph 1013.1mb 52f 52f
5:50 2.5ft 10s 4s 13 16 mph 1012.8mb 52f 52f
4:50 2.5ft 9s 4s 13 18 mph 1013mb 52f 52f
3:50 2.5ft 10s 4s 16 18 mph 1012.8mb 52f 52f
2:50 2.5ft 9s 4s 11 13 mph 1012.4mb 52f 52f
1:50 2.5ft 10s 5s 9 11 mph 1012.7mb 52f 52f
12:50 2.5ft 10s 5s 11 13 mph 1013mb 52f 52f
Fr 02/17 11:50 2.5ft 10s 5s 9 11 mph 1013.4mb 52f 52f
10:50 2.5ft 11s 4s 9 11 mph 1013.8mb 52f 52f
9:50 2.5ft 10s 4s 11 13 mph 1014.1mb 52f 52f
8:50 2.5ft 10s 4s 11 13 mph 1014.3mb 52f 51f
7:50 3ft 10s 4s 13 16 mph 1014mb 52f 50f
6:50 3ft 5s 4s 16 18 mph 1013.9mb 51f 48f
5:50 3ft 10s 5s 13 16 mph 1013.3mb 51f 47f
4:50 3.5ft 6s 5s 16 18 mph 1013.2mb 51f 47f
3:50 3.5ft 6s 5s 13 16 mph 1013.3mb 51f 45f
2:50 3.5ft 6s 5s 9 11 mph 1013.7mb 52f 44f